RADUGA 29 [-]

Last updated on June 24, 2019, 3:40 a.m. UTC

1 22557U 93013A   19174.18104644  .00000120  00000-0  00000+0 0  9999
2 22557  14.9815   6.0880 0004934  46.1416 314.7200  1.00342575 96116
UTC
Height (km)
Latitude
Longitude
Inclination
Orbital Period
UTC large
Height (km)
Speed (km/s)
/
Latitude / Longitude
Inclination (degrees)
Orbital Period (minutes)
Azimuth
Elevation
Range (km)
Doppler Factor
iOS Compass Heading
iOS Angle

Next 30 passes for location: Hong Kong

Rise time Rise Azimuth (degrees) Set time Set Azimuth (degrees) Duration Max altitude (degrees)

No matching passes for this satellites